Meteo pe oră la Bolshie Ermaki

Astăzi, 6 Mai, Joi

Timp Temperatura Precipitaţii Vânt Presiune Umiditate
00:00 +8°C° 0 mm 3 m/s 734 mmHg 93%
01:00 +8°C° 0 mm 3 m/s 734 mmHg 93%
02:00 +8°C° 0 mm 3 m/s 733 mmHg 94%
03:00 +7°C° 0 mm 4 m/s 733 mmHg 94%
04:00 +8°C° 0 mm 4 m/s 733 mmHg 94%
05:00 +8°C° 0 mm 4 m/s 732 mmHg 94%
06:00 +8°C° 0.1 mm 5 m/s 732 mmHg 91%
07:00 +9°C° 0.1 mm 6 m/s 732 mmHg 88%
08:00 +9°C° 0 mm 7 m/s 732 mmHg 85%
09:00 +10°C° 0.1 mm 7 m/s 731 mmHg 80%
10:00 +11°C° 0.1 mm 7 m/s 731 mmHg 75%
11:00 +12°C° 0.1 mm 7 m/s 730 mmHg 70%
12:00 +10°C° 1.1 mm 7 m/s 731 mmHg 77%
13:00 +8°C° 1.1 mm 6 m/s 732 mmHg 84%
14:00 +6°C° 1.1 mm 5 m/s 732 mmHg 92%
15:00 +6°C° 0.1 mm 5 m/s 733 mmHg 90%
16:00 +6°C° 0.1 mm 5 m/s 733 mmHg 88%
17:00 +7°C° 0.1 mm 4 m/s 734 mmHg 87%
18:00 +6°C° 0.1 mm 4 m/s 734 mmHg 87%
19:00 +5°C° 0.1 mm 4 m/s 735 mmHg 88%
20:00 +5°C° 0.1 mm 4 m/s 735 mmHg 89%
21:00 +4°C° 0 mm 3 m/s 736 mmHg 90%
22:00 +4°C° 0 mm 3 m/s 736 mmHg 92%
23:00 +3°C° 0 mm 3 m/s 736 mmHg 94%

Mâine, 7 Mai, Vineri

Timp Temperatura Precipitaţii Vânt Presiune Umiditate
00:00 +3°C° 0 mm 3 m/s 737 mmHg 93%
01:00 +2°C° 0 mm 3 m/s 737 mmHg 92%
02:00 +2°C° 0 mm 3 m/s 737 mmHg 91%
03:00 +2°C° 0 mm 3 m/s 737 mmHg 91%
04:00 +1°C° 0 mm 3 m/s 738 mmHg 92%
05:00 +1°C° 0 mm 3 m/s 738 mmHg 92%
06:00 +3°C° 0 mm 3 m/s 738 mmHg 83%
07:00 +5°C° 0 mm 4 m/s 738 mmHg 74%
08:00 +7°C° 0 mm 4 m/s 738 mmHg 65%
09:00 +7°C° 0.1 mm 4 m/s 738 mmHg 67%
10:00 +8°C° 0.1 mm 5 m/s 738 mmHg 68%
11:00 +8°C° 0.1 mm 5 m/s 739 mmHg 70%
12:00 +9°C° 0.2 mm 5 m/s 738 mmHg 67%
13:00 +10°C° 0.2 mm 5 m/s 738 mmHg 63%
14:00 +12°C° 0.2 mm 5 m/s 738 mmHg 60%
15:00 +12°C° 0.3 mm 5 m/s 738 mmHg 63%
16:00 +11°C° 0.3 mm 4 m/s 737 mmHg 67%
17:00 +11°C° 0.3 mm 4 m/s 737 mmHg 70%
18:00 +10°C° 0.1 mm 3 m/s 737 mmHg 73%
19:00 +9°C° 0.1 mm 3 m/s 737 mmHg 77%
20:00 +9°C° 0.1 mm 3 m/s 737 mmHg 80%
21:00 +7°C° 0.5 mm 4 m/s 736 mmHg 83%
22:00 +7°C° 0.5 mm 5 m/s 736 mmHg 86%
23:00 +7°C° 0.5 mm 6 m/s 735 mmHg 89%

Poimâine, 8 Mai, Sâmbătă

Timp Temperatura Precipitaţii Vânt Presiune Umiditate
00:00 +7°C° 0.6 mm 6 m/s 735 mmHg 91%
01:00 +7°C° 0.6 mm 5 m/s 734 mmHg 92%
02:00 +7°C° 0.6 mm 5 m/s 734 mmHg 94%
03:00 +7°C° 1.7 mm 5 m/s 733 mmHg 95%
04:00 +7°C° 1.7 mm 4 m/s 733 mmHg 96%
05:00 +7°C° 1.7 mm 4 m/s 732 mmHg 97%
06:00 +8°C° 0.2 mm 3 m/s 732 mmHg 97%
07:00 +8°C° 0.2 mm 3 m/s 732 mmHg 97%
08:00 +9°C° 0.2 mm 3 m/s 732 mmHg 97%
09:00 +9°C° 0.5 mm 3 m/s 732 mmHg 95%
10:00 +9°C° 0.5 mm 3 m/s 731 mmHg 93%
11:00 +10°C° 0.5 mm 2 m/s 731 mmHg 92%
12:00 +10°C° 0.6 mm 3 m/s 731 mmHg 87%
13:00 +11°C° 0.6 mm 4 m/s 731 mmHg 83%
14:00 +10°C° 0.6 mm 5 m/s 731 mmHg 79%
15:00 +9°C° 0.5 mm 5 m/s 732 mmHg 81%
16:00 +8°C° 0.5 mm 5 m/s 732 mmHg 82%
17:00 +7°C° 0.5 mm 6 m/s 732 mmHg 84%
18:00 +5°C° 0.5 mm 6 m/s 733 mmHg 88%
19:00 +3°C° 0.5 mm 6 m/s 734 mmHg 92%
20:00 +1°C° 0.5 mm 6 m/s 734 mmHg 96%
21:00 +2°C° 0.2 mm 6 m/s 735 mmHg 95%
22:00 +2°C° 0.2 mm 5 m/s 736 mmHg 93%
23:00 +2°C° 0.2 mm 5 m/s 736 mmHg 92%

9 Mai, Duminică

Timp Temperatura Precipitaţii Vânt Presiune Umiditate
00:00 +2°C° 0 mm 5 m/s 737 mmHg 92%
01:00 +2°C° 0 mm 5 m/s 738 mmHg 91%
02:00 +3°C° 0 mm 4 m/s 738 mmHg 91%
03:00 +1°C° 0 mm 4 m/s 739 mmHg 90%
04:00 +1°C° 0 mm 4 m/s 740 mmHg 89%
05:00 +1°C° 0 mm 4 m/s 741 mmHg 88%
06:00 +1°C° 0 mm 4 m/s 741 mmHg 85%
07:00 +3°C° 0 mm 4 m/s 742 mmHg 82%
08:00 +4°C° 0 mm 4 m/s 743 mmHg 80%
09:00 +5°C° 0 mm 4 m/s 743 mmHg 70%
10:00 +7°C° 0 mm 5 m/s 744 mmHg 60%
11:00 +8°C° 0 mm 5 m/s 744 mmHg 51%
12:00 +9°C° 0 mm 5 m/s 745 mmHg 47%
13:00 +10°C° 0 mm 5 m/s 745 mmHg 43%
14:00 +11°C° 0 mm 4 m/s 746 mmHg 40%
15:00 +11°C° 0 mm 4 m/s 746 mmHg 43%
16:00 +11°C° 0 mm 3 m/s 746 mmHg 46%
17:00 +11°C° 0 mm 3 m/s 747 mmHg 49%
18:00 +9°C° 0 mm 2 m/s 747 mmHg 56%
19:00 +7°C° 0 mm 2 m/s 748 mmHg 63%
20:00 +6°C° 0 mm 1 m/s 749 mmHg 70%
21:00 +6°C° 0 mm 1 m/s 749 mmHg 73%
22:00 +5°C° 0 mm 1 m/s 749 mmHg 75%
23:00 +5°C° 0 mm 1 m/s 750 mmHg 78%

10 Mai, Luni

Timp Temperatura Precipitaţii Vânt Presiune Umiditate
00:00 +4°C° 0 mm 1 m/s 750 mmHg 78%
01:00 +4°C° 0 mm 1 m/s 751 mmHg 79%
02:00 +4°C° 0 mm 1 m/s 751 mmHg 79%
03:00 +4°C° 0 mm 1 m/s 751 mmHg 78%
04:00 +4°C° 0 mm 1 m/s 752 mmHg 77%
05:00 +5°C° 0 mm 1 m/s 752 mmHg 76%
06:00 +7°C° 0 mm 1 m/s 752 mmHg 68%
07:00 +9°C° 0 mm 1 m/s 753 mmHg 61%
08:00 +11°C° 0 mm 1 m/s 753 mmHg 53%
09:00 +13°C° 0 mm 1 m/s 753 mmHg 49%
10:00 +14°C° 0 mm 1 m/s 753 mmHg 45%
11:00 +15°C° 0 mm 2 m/s 753 mmHg 41%
12:00 +16°C° 0 mm 1 m/s 753 mmHg 40%
13:00 +16°C° 0 mm 1 m/s 753 mmHg 39%
14:00 +18°C° 0 mm 1 m/s 753 mmHg 38%
15:00 +16°C° 0 mm 1 m/s 752 mmHg 41%
16:00 +16°C° 0 mm 1 m/s 752 mmHg 44%
17:00 +16°C° 0 mm 1 m/s 752 mmHg 47%
18:00 +14°C° 0 mm 1 m/s 752 mmHg 53%
19:00 +12°C° 0 mm 1 m/s 752 mmHg 60%
20:00 +10°C° 0 mm 1 m/s 752 mmHg 66%
21:00 +9°C° 0 mm 1 m/s 752 mmHg 68%
22:00 +8°C° 0 mm 1 m/s 752 mmHg 70%
23:00 +7°C° 0 mm 1 m/s 753 mmHg 72%

11 Mai, Marţi

Timp Temperatura Precipitaţii Vânt Presiune Umiditate
00:00 +7°C° 0 mm 1 m/s 753 mmHg 73%
01:00 +7°C° 0 mm 1 m/s 753 mmHg 75%
02:00 +6°C° 0 mm 1 m/s 753 mmHg 76%
03:00 +6°C° 0 mm 1 m/s 753 mmHg 76%
04:00 +7°C° 0 mm 1 m/s 753 mmHg 76%
05:00 +7°C° 0 mm 1 m/s 753 mmHg 76%
06:00 +9°C° 0 mm 1 m/s 753 mmHg 69%
07:00 +10°C° 0 mm 2 m/s 753 mmHg 63%
08:00 +13°C° 0 mm 2 m/s 753 mmHg 56%
09:00 +15°C° 0 mm 2 m/s 753 mmHg 51%
10:00 +16°C° 0 mm 2 m/s 753 mmHg 46%
11:00 +18°C° 0 mm 3 m/s 752 mmHg 42%
12:00 +18°C° 0 mm 3 m/s 752 mmHg 40%
13:00 +19°C° 0 mm 3 m/s 752 mmHg 39%
14:00 +19°C° 0 mm 3 m/s 752 mmHg 38%
15:00 +19°C° 0 mm 3 m/s 752 mmHg 42%
16:00 +18°C° 0 mm 2 m/s 752 mmHg 46%
17:00 +18°C° 0 mm 2 m/s 751 mmHg 51%
18:00 +16°C° 0 mm 2 m/s 751 mmHg 59%
19:00 +14°C° 0 mm 2 m/s 751 mmHg 68%
20:00 +10°C° 0 mm 2 m/s 751 mmHg 76%
21:00 +10°C° 0 mm 2 m/s 751 mmHg 79%
22:00 +9°C° 0 mm 2 m/s 751 mmHg 82%
23:00 +9°C° 0 mm 2 m/s 751 mmHg 85%
Arată mai mult

Formular de consimțământ

Meteoprog și furnizorii noștri de servicii pot stoca și accesa date personale, precum cookies, identificatori de dispozitiv sau alte tehnologii similare pe dispozitivul dumneavoastră și procesa astfel de date pentru a personaliza conținutul și reclamele, dar și pentru a oferi caracteristici de social media și pentru a analiza traficul.

  • Stocarea și/sau accesarea informațiilor pe dispozitivul dumneavoastră

    Cookies, identificatori de dispozitiv sau alte informații pot fi stocate sau accesate pe dispozitiv în scopurile indicate mai sus.

  • Reclame și conținut personalizat, evaluarea reclamelor și a conținutului, informații despre audiențe și dezvoltarea produselor

    Reclamele și conținutul pot fi personalizate pe baza unui profil. Pot fi adăugate date suplimentare pentru a personaliza mai bine reclamele și conținutul. Performanța reclamelor și conținutului poate fi măsurată. Pot fi obținute informații despre utilizatorii care au văzut reclamele și conținutul. Aceste date pot fi utilizate pentru a dezvolta sau îmbunătăți experiența utilizatorilor, sistemele și software-ul.

Dând clic pe ‘Sunt de acord’, permiteți utilizarea cookie-urilor menționate, a identificatorilor de dispozitiv, balizelor web sau altor tehnologii similare. Setările pot fi modificate din browser-ul dispozitivului dumneavoastră.

În anumite scopuri, interesele legitime pot prima asupra consimțământului. Puteți citi mai multe informații în acest sens în Politica privind Confidențialitatea Datelor și Cookie.